Showing default

POLAR SCOUT KODIAK, 43764

Orbit data source: Space-Track

POLAR SCOUT KODIAK, 43764 is an American payload satellite in SSO that was launched on Mon, 03 Dec 2018 UTC via an FALCON 9 launch vehicle from the Air Force Western Test Range (AFWTR). Payload-class satellites include a variety of spacecraft equipped with specific instruments for various scientific and technological missions. These include communications satellites like Starlink; space stations such as the ISS; scientific satellites like the Hubble; Earth observation satellites from companies like Planet Labs, Umbra, and HawkEye 360; GPS; miniature CubeSats for education and research; and military/defense satellites.

Not visible in the next 10 days
Identifier
43764, 2018-099G
Orbit
SSO
Country
Flag of USUS
Related business
Manufacturer
Millenium EI
Mission
Operational Defense Technology
Bus & Motor
CUBESAT 6U, Unknown motor
Mass
10 kg wet, 10 kg dry
Launch date (UTC)
2018-12-03 (8 years ago)
Launch vehicle
FALCON 9
Launch site
Air Force Western Test Range (AFWTR)
Object type
Payload
Rocket body
Debris
Shape & HBR
Box + 3 Pan, 0.3 m
Radar Cross Section
0.054 m², Medium (>0.1 m² and < 1m²)

Expand to show TLE details & history
Last TLE update: 1 week ago

TLE from 1 week ago
0 POLAR SCOUT KODIAK
1 43764U 18099G   26154.46125269  .00165786  00000-0  11529-2 0  9997
2 43764  97.4167 237.2613 0006089 243.2410 116.8231 15.73882585412778
Epoch: 2026-06-03T11:04Z
TLE epoch observation values (Epoch: 2026-06-03T11:04:12.232Z)
Latitude
-0.00007°
Longitude
179.2908°
Altitude
352.826 km
Speed
7.696 km/s
True Right ascension
15h 49m 02s
True Declination
0° 00' 00"
Sunlit
Object was in full shadow at epoch
Visualization orbit readout
Latitude
Unknown
Longitude
Unknown
Altitude
Unknown
Speed
Unknown
Apparent Right ascension
Unknown
Apparent Declination
Unknown
Sunlit
N/A
Visualization observer readout
Local Sidereal Time
03:09:39
Azimuth
Unknown
Elevation
Unknown
Doppler factor
Unknown
Orbital elements
Apogee altitude
348.801 km
Perigee altitude
340.614 km
Semi-major axis
6,722.845 km
Eccentricity
0.00061
Inclination
97.4167°
RAAN
237.2613°
Arg. of periapsis
243.241°
True anomaly
116.88535°
Mean anomaly
116.8231°
Eccentric anomaly
116.85423°
Mean motion
3.93744 °/min
Orbital period
91.43 mins
BSTAR
0.0011529
Loading maneuver chart data...
Computing Atmospheric mass density...
Loading historical data...
Loading historical data...
Loading historical data...
Loading historical data...
Loading historical data...
Loading historical data...
Loading historical data...

Documentation

Showing up to 5 results
|